TimeMST,TemperatureF,Dew PointF,Humidity,Sea Level PressureIn,VisibilityMPH,Wind Direction,Wind SpeedMPH,Gust SpeedMPH,PrecipitationIn,Events,Conditions,WindDirDegrees,DateUTC
12:53 AM,21.9,-0.9,37,30.27,10.0,WNW,12.7,-,N/A,,Clear,290,2013-01-04 07:53:00
1:53 AM,21.0,-0.9,38,30.27,10.0,WNW,9.2,-,N/A,,Clear,290,2013-01-04 08:53:00
2:53 AM,21.0,-0.9,38,30.27,10.0,WNW,11.5,-,N/A,,Clear,290,2013-01-04 09:53:00
3:53 AM,21.9,-0.0,38,30.27,10.0,WNW,11.5,-,N/A,,Clear,290,2013-01-04 10:53:00
4:53 AM,19.0,-0.0,43,30.28,10.0,West,12.7,-,N/A,,Clear,280,2013-01-04 11:53:00
5:53 AM,19.0,1.0,46,30.29,10.0,West,12.7,-,N/A,,Clear,280,2013-01-04 12:53:00
6:53 AM,19.9,1.0,44,30.28,10.0,WNW,13.8,-,N/A,,Clear,290,2013-01-04 13:53:00
7:53 AM,19.9,1.9,46,30.29,10.0,West,13.8,-,N/A,,Clear,280,2013-01-04 14:53:00
8:53 AM,26.1,5.0,41,30.26,10.0,WNW,12.7,-,N/A,,Clear,290,2013-01-04 15:53:00
9:53 AM,32.0,9.0,38,30.23,10.0,WNW,10.4,-,N/A,,Clear,290,2013-01-04 16:53:00
10:53 AM,39.0,12.9,34,30.18,10.0,WNW,6.9,-,N/A,,Clear,290,2013-01-04 17:53:00
11:53 AM,43.0,12.9,30,30.12,10.0,NW,8.1,-,N/A,,Clear,310,2013-01-04 18:53:00
12:53 PM,45.0,10.0,24,30.08,10.0,NW,8.1,-,N/A,,Clear,310,2013-01-04 19:53:00
1:53 PM,45.0,8.1,22,30.07,10.0,NW,5.8,-,N/A,,Clear,310,2013-01-04 20:53:00
2:53 PM,42.1,12.0,29,30.08,10.0,SSW,4.6,-,N/A,,Clear,200,2013-01-04 21:53:00
3:53 PM,39.9,12.0,32,30.08,10.0,WSW,4.6,-,N/A,,Clear,240,2013-01-04 22:53:00
4:53 PM,36.0,9.0,33,30.10,10.0,NW,11.5,-,N/A,,Clear,320,2013-01-04 23:53:00
5:53 PM,32.0,6.1,34,30.13,10.0,NW,10.4,-,N/A,,Clear,310,2013-01-05 00:53:00
6:53 PM,24.1,6.1,46,30.18,10.0,WNW,6.9,-,N/A,,Clear,290,2013-01-05 01:53:00
7:53 PM,28.9,1.0,30,30.15,10.0,NW,11.5,-,N/A,,Clear,310,2013-01-05 02:53:00
8:53 PM,28.9,-0.0,29,30.12,10.0,NNW,17.3,23.0,N/A,,Clear,340,2013-01-05 03:53:00
9:53 PM,26.1,-0.9,31,30.12,10.0,NW,20.7,26.5,N/A,,Clear,320,2013-01-05 04:53:00
10:53 PM,27.0,-0.0,31,30.07,10.0,NW,16.1,26.5,N/A,,Clear,320,2013-01-05 05:53:00
11:53 PM,25.0,-0.9,33,30.07,10.0,NW,13.8,21.9,N/A,,Clear,310,2013-01-05 06:53:00